This demonstration page uses our WeatherBlox Daily Observations layout. Learn more.

Left ArrowRight Arrow

38.89511, -77.03637

Hourly Observations for January 10, 2021

Temp ( °F °C ) Dew Point ( °F °C ) Humidity (%) Winds ( mph kmh ) Pressure ( in mb ) Visibility ( mi km ) Precip ( " mm )
12:52 am 00:52 Partly Cloudy 39 3.9 23 -5 53 53 NNW 8 13 30.12 1020 10 16 0.00 0.00
1:52 am 01:52 Partly Cloudy 39 3.9 23 -5 53 53 NW 10 17 30.14 1021 10 16 0.00 0.00
2:52 am 02:52 Mostly Clear 37 2.8 23 -5 57 57 NW 12 19 30.16 1021 10 16 0.00 0.00
3:52 am 03:52 Clear 37 2.8 23 -5 57 57 NNW 10 17 30.16 1021 10 16 0.00 0.00
4:52 am 04:52 Clear 36 2.2 23 -5 59 59 N 5 7 30.17 1022 10 16 0.00 0.00
5:52 am 05:52 Clear 35 1.7 23 -5 61 61 NNW 8 13 30.19 1022 10 16 0.00 0.00
6:52 am 06:52 Mostly Clear 36 2.2 23 -5 59 59 NNW 9 15 30.21 1023 10 16 0.00 0.00
7:52 am 07:52 Mostly Sunny 35 1.7 22 -5.6 59 59 N 6 9 30.25 1024 10 16 0.00 0.00
8:52 am 08:52 Mostly Sunny 39 3.9 21 -6.1 48 48 NNW 12 19 30.27 1025 10 16 0.00 0.00
9:52 am 09:52 Mostly Sunny 42 5.6 20 -6.7 41 41 NNW 14 22 30.30 1026 10 16 0.00 0.00
10:52 am 10:52 Mostly Sunny 45 7.2 21 -6.1 39 39 NW 10 17 30.30 1026 10 16 0.00 0.00
11:52 am 11:52 Sunny 46 7.8 22 -5.6 38 38 NW 12 19 30.27 1025 10 16 0.00 0.00
12:52 pm 12:52 Partly Cloudy 48 8.9 23 -5 37 37 WNW 8 13 30.26 1025 10 16 0.00 0.00
1:52 pm 13:52 Partly Cloudy 49 9.4 22 -5.6 35 35 NNW 10 17 30.25 1024 10 16 0.00 0.00
2:52 pm 14:52 Partly Cloudy 49 9.4 22 -5.6 35 35 NW 10 17 30.25 1025 10 16 0.00 0.00
3:52 pm 15:52 Partly Cloudy 48 8.9 22 -5.6 36 36 WNW 6 9 30.27 1025 10 16 0.00 0.00
4:52 pm 16:52 Mostly Sunny 46 7.8 22 -5.6 38 38 WNW 5 7 30.27 1025 10 16 0.00 0.00
5:52 pm 17:52 Mostly Clear 44 6.7 22 -5.6 41 41 WNW 6 9 30.29 1026 10 16 0.00 0.00
6:52 pm 18:52 Clear 43 6.1 22 -5.6 43 43 W 5 7 30.31 1026 10 16 0.00 0.00
7:52 pm 19:52 Clear 39 3.9 28 -2.2 65 65 Calm 30.31 1027 10 16 0.00 0.00
8:52 pm 20:52 Clear 38 3.3 29 -1.7 70 70 Calm 30.32 1027 10 16 0.00 0.00
9:52 pm 21:52 Clear 37 2.8 26 -3.3 65 65 Calm 30.32 1027 10 16 0.00 0.00
10:52 pm 22:52 Partly Cloudy 36 2.2 27 -2.8 70 70 SSW 3 6 30.34 1028 9 14 0.00 0.00
11:52 pm 23:52 Partly Cloudy 35 1.7 26 -3.3 70 70 Calm 30.34 1027 10 16 0.00 0.00

Powered by AerisWeather